STARLINK-1803 (46703 NORAD) Tracking and Keplerian Element Data

This shows tracking and keplerian element data for the satellite.

Feedback or suggestion? Click here.




ElementValue
Catalog46703
NameSTARLINK-1803
Epoch Orbit1478
Epoch Day18.25002315
Epoch Year2021
RAAN25.279
Inclination53.053
Eccentricity0.0001943
Argument of Perigee70.2743
Mean Anonmoly295.3646
Mean Motion15.06397583
Decay Rate-0.00026581
L11 46703U 20073AK 21018.25002315 -.00026581 00000-0 -17723-2 0 9998
L22 46703 53.0530 25.2790 0001943 70.2743 295.3646 15.06397583 14785

Live tracking and technical data element details for STARLINK-1803 (NORAD 46703). STARLINK-1803 can be tracked NOW for your location showing map with azimuth and elevation plus other details from your city location.

Track the satellite on the map from your city or location and see movement details for azimuth, elevation, latitude, longitude, range, height, and movement on the map or in text.







IsCatalogInMostPopularTable: catalog: 46703, numindb: 28
Update: records affected: 1



GetName: 46703 STARLINK-1803

Hit Count: updated at: Tue, 19 Jan 2021 03:30:53 GMT